Time,TemperatureF,DewpointF,PressureIn,WindDirection,WindDirectionDegrees,WindSpeedMPH,WindSpeedGustMPH,Humidity,HourlyPrecipIn,Conditions,Clouds,dailyrainin,SoftwareType,DateUTC
2013-04-05 00:11:00,55.0,53.0,30.11,SSW,196,2.0,7.0,94,0.00,,,0.00,weatherlink.com 1.10,2013-04-05 07:11:00,
2013-04-05 00:26:00,54.9,53.0,30.11,South,180,2.0,6.0,94,0.00,,,0.00,weatherlink.com 1.10,2013-04-05 07:26:00,
2013-04-05 00:42:00,54.7,53.0,30.11,South,179,5.0,6.0,94,0.00,,,0.00,weatherlink.com 1.10,2013-04-05 07:42:00,
2013-04-05 00:57:00,54.4,53.0,30.11,SSW,200,4.0,6.0,94,0.00,,,0.00,weatherlink.com 1.10,2013-04-05 07:57:00,
2013-04-05 01:12:00,54.2,53.0,30.12,SSW,194,3.0,8.0,94,0.00,,,0.00,weatherlink.com 1.10,2013-04-05 08:12:00,
2013-04-05 01:27:00,54.3,53.0,30.12,SSW,196,2.0,7.0,94,0.00,,,0.00,weatherlink.com 1.10,2013-04-05 08:27:00,
2013-04-05 01:42:00,54.5,53.0,30.12,SSW,211,4.0,7.0,94,0.00,,,0.00,weatherlink.com 1.10,2013-04-05 08:42:00,
2013-04-05 01:57:00,54.8,53.0,30.12,SW,215,3.0,8.0,93,0.00,,,0.00,weatherlink.com 1.10,2013-04-05 08:57:00,
2013-04-05 02:12:00,54.9,53.0,30.12,SSW,211,6.0,8.0,93,0.00,,,0.00,weatherlink.com 1.10,2013-04-05 09:12:00,
2013-04-05 02:27:00,55.0,53.0,30.12,SW,221,3.0,9.0,92,0.00,,,0.00,weatherlink.com 1.10,2013-04-05 09:27:00,
2013-04-05 02:42:00,54.8,53.0,30.11,SSW,196,5.0,7.0,92,0.00,,,0.00,weatherlink.com 1.10,2013-04-05 09:42:00,
2013-04-05 02:57:00,54.6,53.0,30.11,South,178,4.0,6.0,93,0.00,,,0.00,weatherlink.com 1.10,2013-04-05 09:57:00,
2013-04-05 03:12:00,54.4,53.0,30.12,SSW,192,3.0,5.0,93,0.00,,,0.00,weatherlink.com 1.10,2013-04-05 10:12:00,
2013-04-05 03:42:00,54.4,52.0,30.12,SSW,195,1.0,8.0,92,0.00,,,0.00,weatherlink.com 1.10,2013-04-05 10:42:00,
2013-04-05 03:57:00,54.2,52.0,30.12,SSW,194,3.0,4.0,92,0.00,,,0.00,weatherlink.com 1.10,2013-04-05 10:57:00,
2013-04-05 04:12:00,53.6,51.0,30.12,SW,219,1.0,5.0,92,0.00,,,0.00,weatherlink.com 1.10,2013-04-05 11:12:00,
2013-04-05 04:27:00,52.9,51.0,30.12,SW,227,1.0,4.0,93,0.00,,,0.00,weatherlink.com 1.10,2013-04-05 11:27:00,
2013-04-05 04:42:00,52.4,51.0,30.13,WSW,238,0.0,1.0,94,0.00,,,0.00,weatherlink.com 1.10,2013-04-05 11:42:00,
2013-04-05 04:57:00,52.2,51.0,30.13,WSW,238,0.0,2.0,95,0.00,,,0.00,weatherlink.com 1.10,2013-04-05 11:57:00,
2013-04-05 05:12:00,52.5,51.0,30.13,WSW,238,0.0,2.0,95,0.00,,,0.00,weatherlink.com 1.10,2013-04-05 12:12:00,
2013-04-05 05:27:00,51.8,50.0,30.13,SW,236,2.0,3.0,94,0.00,,,0.00,weatherlink.com 1.10,2013-04-05 12:27:00,
2013-04-05 05:42:00,50.8,50.0,30.13,NE,44,4.0,5.0,95,0.00,,,0.00,weatherlink.com 1.10,2013-04-05 12:42:00,
2013-04-05 05:57:00,51.6,51.0,30.13,ESE,117,1.0,3.0,96,0.00,,,0.00,weatherlink.com 1.10,2013-04-05 12:57:00,
2013-04-05 06:12:00,51.3,50.0,30.13,ESE,117,0.0,1.0,95,0.00,,,0.00,weatherlink.com 1.10,2013-04-05 13:12:00,
2013-04-05 06:27:00,51.4,50.0,30.13,ESE,117,0.0,2.0,96,0.00,,,0.00,weatherlink.com 1.10,2013-04-05 13:27:00,
2013-04-05 06:42:00,51.5,50.0,30.13,ESE,123,0.0,2.0,96,0.00,,,0.00,weatherlink.com 1.10,2013-04-05 13:42:00,
2013-04-05 06:57:00,52.1,51.0,30.13,ESE,123,0.0,2.0,97,0.00,,,0.00,weatherlink.com 1.10,2013-04-05 13:57:00,
2013-04-05 07:12:00,52.7,52.0,30.13,East,92,1.0,2.0,96,0.00,,,0.00,weatherlink.com 1.10,2013-04-05 14:12:00,
2013-04-05 07:27:00,53.6,52.0,30.14,SSE,162,2.0,3.0,95,0.00,,,0.00,weatherlink.com 1.10,2013-04-05 14:27:00,
2013-04-05 07:42:00,54.4,53.0,30.14,SSW,204,2.0,4.0,95,0.00,,,0.00,weatherlink.com 1.10,2013-04-05 14:42:00,
2013-04-05 07:57:00,55.1,53.0,30.14,South,176,3.0,5.0,93,0.00,,,0.00,weatherlink.com 1.10,2013-04-05 14:57:00,
2013-04-05 08:13:00,55.8,54.0,30.15,South,169,3.0,4.0,93,0.00,,,0.00,weatherlink.com 1.10,2013-04-05 15:13:00,
2013-04-05 08:28:00,56.8,54.0,30.15,South,171,1.0,6.0,91,0.00,,,0.00,weatherlink.com 1.10,2013-04-05 15:28:00,
2013-04-05 08:43:00,57.5,55.0,30.15,South,191,5.0,6.0,90,0.00,,,0.00,weatherlink.com 1.10,2013-04-05 15:43:00,
2013-04-05 08:58:00,58.1,56.0,30.16,SSW,205,6.0,8.0,91,0.00,,,0.00,weatherlink.com 1.10,2013-04-05 15:58:00,
2013-04-05 09:13:00,59.1,56.0,30.16,SSW,202,4.0,9.0,88,0.00,,,0.00,weatherlink.com 1.10,2013-04-05 16:13:00,
2013-04-05 09:28:00,59.8,55.0,30.15,SW,215,6.0,11.0,85,0.00,,,0.00,weatherlink.com 1.10,2013-04-05 16:28:00,
2013-04-05 09:43:00,60.2,55.0,30.15,WSW,239,5.0,8.0,84,0.00,,,0.00,weatherlink.com 1.10,2013-04-05 16:43:00,
2013-04-05 09:58:00,60.9,55.0,30.14,SW,227,3.0,7.0,82,0.00,,,0.00,weatherlink.com 1.10,2013-04-05 16:58:00,
2013-04-05 10:13:00,61.3,55.0,30.15,SW,228,6.0,8.0,81,0.00,,,0.00,weatherlink.com 1.10,2013-04-05 17:13:00,
2013-04-05 10:28:00,62.1,55.0,30.15,SW,234,6.0,8.0,78,0.00,,,0.00,weatherlink.com 1.10,2013-04-05 17:28:00,
2013-04-05 10:43:00,62.2,55.0,30.15,SSW,206,3.0,10.0,77,0.00,,,0.00,weatherlink.com 1.10,2013-04-05 17:43:00,
2013-04-05 10:58:00,61.8,54.0,30.16,SW,227,8.0,11.0,76,0.00,,,0.00,weatherlink.com 1.10,2013-04-05 17:58:00,
2013-04-05 11:13:00,62.7,56.0,30.15,WSW,238,8.0,12.0,79,0.00,,,0.00,weatherlink.com 1.10,2013-04-05 18:13:00,
2013-04-05 11:28:00,63.3,55.0,30.15,SSW,210,5.0,12.0,74,0.00,,,0.00,weatherlink.com 1.10,2013-04-05 18:28:00,
2013-04-05 11:43:00,63.7,54.0,30.16,SW,221,11.0,13.0,71,0.00,,,0.00,weatherlink.com 1.10,2013-04-05 18:43:00,
2013-04-05 11:58:00,63.3,55.0,30.15,SW,221,8.0,11.0,73,0.00,,,0.00,weatherlink.com 1.10,2013-04-05 18:58:00,
2013-04-05 12:13:00,63.7,55.0,30.15,WSW,243,6.0,13.0,72,0.00,,,0.00,weatherlink.com 1.10,2013-04-05 19:13:00,
2013-04-05 12:28:00,64.3,53.0,30.15,WSW,242,6.0,13.0,67,0.00,,,0.00,weatherlink.com 1.10,2013-04-05 19:28:00,
2013-04-05 12:58:00,65.7,56.0,30.15,SSW,210,12.0,17.0,71,0.00,,,0.00,weatherlink.com 1.10,2013-04-05 19:58:00,
2013-04-05 13:29:00,66.1,56.0,30.14,SW,221,8.0,14.0,69,0.00,,,0.00,weatherlink.com 1.10,2013-04-05 20:29:00,
2013-04-05 13:44:00,66.2,54.0,30.13,SW,226,10.0,12.0,66,0.00,,,0.00,weatherlink.com 1.10,2013-04-05 20:44:00,
2013-04-05 13:59:00,66.6,55.0,30.12,SSW,196,8.0,13.0,66,0.00,,,0.00,weatherlink.com 1.10,2013-04-05 20:59:00,
2013-04-05 14:29:00,65.9,55.0,30.12,SW,219,4.0,11.0,67,0.00,,,0.00,weatherlink.com 1.10,2013-04-05 21:29:00,
2013-04-05 14:44:00,67.2,55.0,30.12,SW,232,10.0,14.0,64,0.00,,,0.00,weatherlink.com 1.10,2013-04-05 21:44:00,
2013-04-05 14:59:00,66.7,55.0,30.12,SW,214,12.0,13.0,67,0.00,,,0.00,weatherlink.com 1.10,2013-04-05 21:59:00,
2013-04-05 15:14:00,66.8,55.0,30.11,WSW,255,6.0,14.0,67,0.00,,,0.00,weatherlink.com 1.10,2013-04-05 22:14:00,
2013-04-05 15:29:00,66.8,54.0,30.11,SW,220,4.0,14.0,63,0.00,,,0.00,weatherlink.com 1.10,2013-04-05 22:29:00,
2013-04-05 15:44:00,67.1,55.0,30.11,WSW,244,7.0,12.0,65,0.00,,,0.00,weatherlink.com 1.10,2013-04-05 22:44:00,
2013-04-05 16:14:00,67.3,55.0,30.10,West,259,3.0,11.0,64,0.00,,,0.00,weatherlink.com 1.10,2013-04-05 23:14:00,
2013-04-05 16:29:00,67.0,54.0,30.10,WSW,239,7.0,11.0,63,0.00,,,0.00,weatherlink.com 1.10,2013-04-05 23:29:00,
2013-04-05 16:44:00,67.0,53.0,30.10,SW,232,6.0,12.0,62,0.00,,,0.00,weatherlink.com 1.10,2013-04-05 23:44:00,
2013-04-05 16:59:00,65.9,54.0,30.10,SW,216,11.0,14.0,65,0.00,,,0.00,weatherlink.com 1.10,2013-04-05 23:59:00,
2013-04-05 17:14:00,65.4,53.0,30.10,SSW,204,10.0,14.0,64,0.00,,,0.00,weatherlink.com 1.10,2013-04-06 00:14:00,
2013-04-05 17:29:00,65.2,53.0,30.11,SSW,202,9.0,15.0,65,0.00,,,0.00,weatherlink.com 1.10,2013-04-06 00:29:00,
2013-04-05 17:44:00,64.5,55.0,30.10,WSW,244,8.0,16.0,70,0.00,,,0.00,weatherlink.com 1.10,2013-04-06 00:44:00,
2013-04-05 17:59:00,64.7,53.0,30.10,SSW,206,6.0,14.0,67,0.00,,,0.00,weatherlink.com 1.10,2013-04-06 00:59:00,
2013-04-05 18:14:00,63.9,54.0,30.10,SW,230,12.0,12.0,69,0.00,,,0.00,weatherlink.com 1.10,2013-04-06 01:14:00,
2013-04-05 18:44:00,62.2,53.0,30.10,SW,227,7.0,12.0,73,0.00,,,0.00,weatherlink.com 1.10,2013-04-06 01:44:00,
2013-04-05 19:14:00,61.3,53.0,30.10,SSW,200,8.0,11.0,75,0.00,,,0.00,weatherlink.com 1.10,2013-04-06 02:14:00,
2013-04-05 19:44:00,59.9,52.0,30.09,SW,224,4.0,10.0,76,0.00,,,0.00,weatherlink.com 1.10,2013-04-06 02:44:00,
2013-04-05 19:59:00,59.4,53.0,30.10,SSW,203,7.0,13.0,78,0.00,,,0.00,weatherlink.com 1.10,2013-04-06 02:59:00,
2013-04-05 20:14:00,58.9,53.0,30.10,WSW,246,5.0,10.0,80,0.00,,,0.00,weatherlink.com 1.10,2013-04-06 03:14:00,
2013-04-05 20:29:00,58.4,53.0,30.11,SW,228,8.0,11.0,81,0.00,,,0.00,weatherlink.com 1.10,2013-04-06 03:29:00,
2013-04-05 20:44:00,57.7,52.0,30.12,SW,220,4.0,11.0,82,0.00,,,0.00,weatherlink.com 1.10,2013-04-06 03:44:00,
2013-04-05 20:59:00,57.1,52.0,30.13,SW,230,8.0,8.0,83,0.00,,,0.00,weatherlink.com 1.10,2013-04-06 03:59:00,
2013-04-05 21:14:00,56.5,51.0,30.13,SSW,209,9.0,11.0,83,0.00,,,0.00,weatherlink.com 1.10,2013-04-06 04:14:00,
2013-04-05 21:29:00,56.4,51.0,30.13,SSW,211,4.0,11.0,83,0.00,,,0.00,weatherlink.com 1.10,2013-04-06 04:29:00,
2013-04-05 21:44:00,56.1,51.0,30.13,SSW,204,6.0,11.0,83,0.00,,,0.00,weatherlink.com 1.10,2013-04-06 04:44:00,
2013-04-05 21:59:00,55.4,51.0,30.14,SSW,213,8.0,9.0,85,0.00,,,0.00,weatherlink.com 1.10,2013-04-06 04:59:00,
2013-04-05 22:14:00,54.9,51.0,30.14,SSW,210,7.0,9.0,86,0.00,,,0.00,weatherlink.com 1.10,2013-04-06 05:14:00,
2013-04-05 22:29:00,54.5,51.0,30.15,WSW,242,7.0,8.0,87,0.00,,,0.00,weatherlink.com 1.10,2013-04-06 05:29:00,
2013-04-05 22:44:00,53.9,51.0,30.14,SSW,209,5.0,10.0,88,0.00,,,0.00,weatherlink.com 1.10,2013-04-06 05:44:00,
2013-04-05 22:59:00,53.5,50.0,30.15,SW,217,4.0,10.0,88,0.00,,,0.00,weatherlink.com 1.10,2013-04-06 05:59:00,
2013-04-05 23:14:00,53.3,50.0,30.14,WSW,254,2.0,9.0,89,0.00,,,0.00,weatherlink.com 1.10,2013-04-06 06:14:00,
2013-04-05 23:29:00,53.1,50.0,30.14,SSW,203,4.0,7.0,89,0.00,,,0.00,weatherlink.com 1.10,2013-04-06 06:29:00,
2013-04-05 23:44:00,53.1,50.0,30.15,WSW,254,6.0,7.0,89,0.00,,,0.00,weatherlink.com 1.10,2013-04-06 06:44:00,
2013-04-05 23:59:00,53.1,50.0,30.16,SSW,202,2.0,8.0,89,0.00,,,0.00,weatherlink.com 1.10,2013-04-06 06:59:00,